Regional Weather Roundup
Issued by NWS

Home | Current Version | Previous Version | Text Only | Print | Product List | Glossary On
Versions: 1 2 3 4 5 6 7 8 9 10 11 12 13 14 15 16 17 18 19 20 21 22 23 24 25 26 27 28 29 30 31 32 33 34 35 36 37 38 39 40 41 42 43 44 45 46 47 48 49 50
000
ASUS42 KFFC 011703
RWRGA
WEATHER ROUNDUP FOR GEORGIA
NATIONAL WEATHER SERVICE PEACHTREE CITY GA
100 PM EDT WED JUL 01 2015

NOTE: "FAIR" INDICATES FEW OR NO CLOUDS BELOW 12,000 FEET WITH NO
SIGNIFICANT WEATHER AND/OR OBSTRUCTIONS TO VISIBILITY.

* = USE WITH CAUTION. THE STATIONS MARKED WITH AN ASTERISK MAY NOT
REPORT WEATHER SUCH AS PRECIPITATION, FOG, OR THUNDER AND ARE NOT
QUALITY CONTROLLED BY NWS.

THE REMARK "TC" DENOTES TEMPERATURE READING IN DEGREES CELSIUS.

GAZ001>058-011800-
NORTH GEORGIA

CITY           SKY/WX    TMP DP  RH WIND       PRES   REMARKS
ATLANTA        CLOUDY    79  67  66 SW6       30.09R
ATHENS         PTSUNNY   82  69  64 VRB6      30.06S
CHAMBLEE       PTSUNNY   80  67  64 SW8       30.08F HAZE
PEACHTREE CITY MOSUNNY   80  68  66 VRB3      30.10R
ROME           MOSUNNY   81  71  71 VRB7      30.05S
WEST ATLANTA   PTSUNNY   79  67  66 VRB7      30.08S
GAINESVILLE    MOSUNNY   78  67  68 W9        30.10S
CARTERSVILLE   PTSUNNY   80  70  71 VRB3      30.07S


CITY           SKY/WX    TMP DP  RH WIND       PRES   REMARKS
DALTON*        PTSUNNY   81  72  74 S5        30.05S
LAWRENCEVILLE* MOSUNNY   81  64  57 W7          N/A  HAZE
MARIETTA       PTSUNNY   79  69  71 VRB5      30.08R
KENNESAW*      MOSUNNY   79  68  69 MISG      30.10R
BLAIRSVILLE*     N/A     75  58  54 CALM      30.10F
$$

GAZ059>098-102>109-011800-
CENTRAL GEORGIA

CITY           SKY/WX    TMP DP  RH WIND       PRES   REMARKS
AUGUSTA-BUSH   SUNNY     84  70  62 W10       30.04R
AUGUSTA-DANIEL MOSUNNY   85  69  58 SW8       30.04F
COLUMBUS       MOSUNNY   81  70  69 W5        30.08S
MACON          PTSUNNY   81  70  69 W8        30.08S
ROBINS AFB     MOSUNNY   81  71  70 W6        30.07S


CITY           SKY/WX    TMP DP  RH WIND       PRES   REMARKS
LAGRANGE*      MOSUNNY   84  76  78 W5        30.09F HX  93
SYLVANIA*      PTSUNNY   85  74  70 W7        30.06S HX  92
MILLEDGEVILLE* MOSUNNY   84  68  58 W5        30.06F
$$

GAZ099>101-110>166-011800-
SOUTH GEORGIA

CITY           SKY/WX    TMP DP  RH WIND       PRES   REMARKS
SAVANNAH       PTSUNNY   85  69  58 W10       30.05F
VALDOSTA       MOSUNNY   89  73  59 VRB6      30.11S HX  97
ALMA           SUNNY     86  71  60 W12       30.08S HX  91
ST SIMONS      PTSUNNY   86  70  58 SW16      30.07F HX  90
FT STEWART     MOSUNNY   86  71  60 SW12      30.04F HX  91
ALBANY         SUNNY     88  71  57 SW14G20   30.11S HX  94
MOODY AFB      CLOUDY    88  71  56 SW13G18   30.09F HX  93
BRUNSWICK      PTSUNNY   88  72  58 W14       30.08F HX  94


CITY           SKY/WX    TMP DP  RH WIND       PRES   REMARKS
BAINBRIDGE*    MOSUNNY   91  73  55 W13       30.11F HX 100
MOULTRIE*      SUNNY     88  72  58 W12       30.12S HX  94
VIDALIA*       PTSUNNY   84  70  61 W8G17     30.07F
WAYCROSS*      SUNNY     91  75  60 W14       30.08F HX 101
DOUGLAS*       MOSUNNY   88  72  58 W10       30.10S HX  94
$$


USA.gov is the U.S. government's official web portal to all federal, state and local government web resources and services.